USA 153

Last updated on Thu Jul 03 2025 00:02:44 GMT+0000 (Coordinated Universal Time)

1 26575U 00065A 25183.63881039 -.00000324 00000+0 00000+0 0 9991 2 26575 11.0181 38.2089 0001579 33.8437 213.1494 1.00276077 29420
UTC large
Height (km)
Speed (km/s)
/
Latitude / Longitude
Inclination (degrees)
Orbital Period (minutes)
Azimuth
Elevation
Range (km)
Doppler Factor

Next 0 passes for location: London (51.5072 / 0.1276)

Sorry there are no passes over London.